Location: *
(90.0000°N, 180.0000°W)
Time: 07:37:09
(UTC+01:00)

Okean O Rocket - Visible Passes

Search period start: 21 November 2017 00:00
Search period end: 01 December 2017 00:00
Orbit: 624 x 644 km, 98.1° (Epoch: 20 November)

Date Brightness Start Highest point End Pass type
(mag) Time Alt. Az. Time Alt. Az. Time Alt. Az.
21 Nov 3.5 00:44:42 10° SSE 00:48:42 31° SSW 00:52:42 10° W visible
21 Nov 3.5 02:22:09 10° S 02:26:09 31° SW 02:30:09 10° WNW visible
21 Nov 3.5 03:59:37 10° SSW 04:03:36 31° WSW 04:07:37 10° NW visible
21 Nov 3.5 05:37:05 10° SW 05:41:04 31° WNW 05:45:04 10° NNW visible
21 Nov 3.5 07:14:32 10° WSW 07:18:31 31° NW 07:22:32 10° N visible
21 Nov 3.5 08:51:59 10° W 08:55:59 31° NNW 08:59:59 10° NE visible
21 Nov 3.5 10:29:27 10° WNW 10:33:27 31° N 10:37:27 10° ENE visible
21 Nov 3.5 12:06:54 10° NW 12:10:54 31° NNE 12:14:54 10° E visible
21 Nov 3.5 13:44:22 10° NNW 13:48:22 31° NE 13:52:22 10° ESE visible
21 Nov 3.5 15:21:49 10° N 15:25:49 31° ENE 15:29:49 10° SE visible
21 Nov 3.5 16:59:16 10° NNE 17:03:17 31° E 17:07:17 10° SSE visible
21 Nov 3.5 18:36:45 10° NE 18:40:44 31° ESE 18:44:44 10° S visible
21 Nov 3.5 20:14:12 10° E 20:18:12 31° SE 20:22:12 10° SSW visible
21 Nov 3.5 21:51:40 10° ESE 21:55:39 31° SSE 21:59:39 10° SW visible
21 Nov 3.5 23:29:07 10° SE 23:33:07 31° S 23:37:07 10° WSW visible
22 Nov 3.5 01:06:35 10° SSE 01:10:34 31° SW 01:14:34 10° W visible
22 Nov 3.5 02:44:02 10° S 02:48:02 31° WSW 02:52:02 10° WNW visible
22 Nov 3.5 04:21:30 10° SSW 04:25:29 31° W 04:29:29 10° NNW visible
22 Nov 3.5 05:58:57 10° SW 06:02:57 31° WNW 06:06:57 10° N visible
22 Nov 3.5 07:36:25 10° WSW 07:40:24 31° NW 07:44:25 10° NNE visible
22 Nov 3.5 09:13:52 10° W 09:17:52 31° NNW 09:21:52 10° NE visible
22 Nov 3.5 10:51:20 10° WNW 10:55:19 31° N 10:59:20 10° ENE visible
22 Nov 3.5 12:28:47 10° NW 12:32:46 31° NNE 12:36:47 10° E visible
22 Nov 3.5 14:06:15 10° NNW 14:10:14 31° NE 14:14:15 10° ESE visible
22 Nov 3.5 15:43:42 10° NNE 15:47:42 31° ENE 15:51:42 10° SE visible
22 Nov 3.5 17:21:10 10° NE 17:25:09 31° E 17:29:10 10° SSE visible
22 Nov 3.5 18:58:37 10° ENE 19:02:37 31° ESE 19:06:37 10° S visible
22 Nov 3.5 20:36:05 10° E 20:40:04 31° SSE 20:44:05 10° SSW visible
22 Nov 3.5 22:13:32 10° ESE 22:17:32 31° S 22:21:32 10° SW visible
22 Nov 3.5 23:51:00 10° SE 23:54:59 31° SSW 23:59:00 10° W visible
23 Nov 3.5 01:28:27 10° SSE 01:32:27 31° SW 01:36:27 10° WNW visible
23 Nov 3.5 03:05:55 10° S 03:09:54 31° WSW 03:13:55 10° NW visible
23 Nov 3.5 04:43:22 10° SSW 04:47:22 31° W 04:51:22 10° NNW visible
23 Nov 3.5 06:20:50 10° SW 06:24:49 31° WNW 06:28:50 10° N visible
23 Nov 3.5 07:58:17 10° WSW 08:02:17 31° NW 08:06:17 10° NNE visible
23 Nov 3.5 09:35:45 10° W 09:39:45 31° NNW 09:43:45 10° NE visible
23 Nov 3.5 11:13:12 10° NW 11:17:12 31° N 11:21:12 10° ENE visible
23 Nov 3.5 12:50:40 10° NNW 12:54:40 31° NNE 12:58:40 10° E visible
23 Nov 3.5 14:28:07 10° N 14:32:07 31° NE 14:36:07 10° ESE visible
23 Nov 3.5 16:05:35 10° NNE 16:09:35 31° E 16:13:35 10° SE visible
23 Nov 3.5 17:43:02 10° NE 17:47:02 31° ESE 17:51:02 10° SSE visible
23 Nov 3.5 19:20:30 10° ENE 19:24:30 31° SE 19:28:30 10° SSW visible
23 Nov 3.5 20:57:57 10° E 21:01:57 31° SSE 21:05:57 10° SW visible
23 Nov 3.5 22:35:25 10° ESE 22:39:25 31° S 22:43:25 10° WSW visible
24 Nov 3.5 00:12:52 10° SE 00:16:52 31° SSW 00:20:52 10° W visible
24 Nov 3.5 01:50:20 10° SSE 01:54:20 31° SW 01:58:20 10° WNW visible
24 Nov 3.5 03:27:47 10° S 03:31:47 31° WSW 03:35:47 10° NW visible
24 Nov 3.5 05:05:15 10° SSW 05:09:15 31° W 05:13:15 10° NNW visible
24 Nov 3.5 06:42:42 10° WSW 06:46:42 31° WNW 06:50:42 10° N visible
24 Nov 3.5 08:20:10 10° W 08:24:09 31° NW 08:28:10 10° NNE visible
24 Nov 3.5 09:57:37 10° WNW 10:01:37 31° NNW 10:05:37 10° NE visible
24 Nov 3.5 11:35:05 10° NW 11:39:04 31° NNE 11:43:05 10° ENE visible
24 Nov 3.5 13:12:32 10° NNW 13:16:32 31° NE 13:20:32 10° E visible
24 Nov 3.5 14:50:00 10° N 14:53:59 31° ENE 14:58:00 10° SE visible
24 Nov 3.5 16:27:27 10° NNE 16:31:27 31° E 16:35:27 10° SSE visible
24 Nov 3.5 18:04:55 10° NE 18:08:55 31° ESE 18:12:55 10° S visible
24 Nov 3.5 19:42:22 10° ENE 19:46:22 31° SE 19:50:23 10° SSW visible
24 Nov 3.5 21:19:50 10° E 21:23:50 31° SSE 21:27:51 10° SW visible
24 Nov 3.5 22:57:17 10° ESE 23:01:17 31° S 23:05:18 10° WSW visible
25 Nov 3.5 00:34:45 10° SE 00:38:45 31° SSW 00:42:46 10° W visible
25 Nov 3.5 02:12:12 10° S 02:16:12 31° SW 02:20:13 10° WNW visible
25 Nov 3.5 03:49:40 10° SSW 03:53:40 31° WSW 03:57:40 10° NW visible
25 Nov 3.5 05:27:07 10° SW 05:31:07 31° W 05:35:08 10° NNW visible
25 Nov 3.5 07:04:35 10° WSW 07:08:35 31° NW 07:12:35 10° N visible
25 Nov 3.5 08:42:02 10° W 08:46:02 31° NNW 08:50:03 10° NNE visible
25 Nov 3.5 10:19:30 10° WNW 10:23:30 31° N 10:27:30 10° NE visible
25 Nov 3.5 11:56:58 10° NW 12:00:57 31° NNE 12:04:58 10° E visible
25 Nov 3.5 13:34:25 10° NNW 13:38:25 31° NE 13:42:25 10° ESE visible
25 Nov 3.5 15:11:52 10° N 15:15:53 31° ENE 15:19:53 10° SE visible
25 Nov 3.5 16:49:20 10° NNE 16:53:20 31° E 16:57:21 10° SSE visible
25 Nov 3.5 18:26:48 10° NE 18:30:48 31° ESE 18:34:48 10° S visible
25 Nov 3.5 20:04:15 10° ENE 20:08:15 31° SE 20:12:15 10° SSW visible
25 Nov 3.5 21:41:43 10° E 21:45:42 31° SSE 21:49:43 10° SW visible
25 Nov 3.5 23:19:10 10° SE 23:23:10 31° S 23:27:11 10° WSW visible
26 Nov 3.5 00:56:38 10° SSE 01:00:38 31° SSW 01:04:38 10° W visible
26 Nov 3.5 02:34:05 10° S 02:38:05 31° WSW 02:42:06 10° WNW visible
26 Nov 3.5 04:11:33 10° SSW 04:15:33 31° W 04:19:33 10° NW visible
26 Nov 3.5 05:49:00 10° SW 05:53:01 31° WNW 05:57:01 10° NNW visible
26 Nov 3.5 07:26:28 10° WSW 07:30:28 31° NW 07:34:28 10° NNE visible
26 Nov 3.5 09:03:55 10° W 09:07:55 31° NNW 09:11:56 10° NE visible
26 Nov 3.5 10:41:23 10° WNW 10:45:23 31° N 10:49:23 10° ENE visible
26 Nov 3.5 12:18:50 10° NW 12:22:50 31° NNE 12:26:51 10° E visible
26 Nov 3.5 13:56:18 10° NNW 14:00:18 31° NE 14:04:18 10° ESE visible
26 Nov 3.5 15:33:45 10° N 15:37:45 31° ENE 15:41:46 10° SE visible
26 Nov 3.5 17:11:13 10° NNE 17:15:13 31° E 17:19:13 10° SSE visible
26 Nov 3.5 18:48:40 10° ENE 18:52:40 31° ESE 18:56:40 10° S visible
26 Nov 3.5 20:26:08 10° E 20:30:08 31° SE 20:34:08 10° SSW visible
26 Nov 3.5 22:03:35 10° ESE 22:07:35 31° S 22:11:35 10° SW visible
26 Nov 3.5 23:41:03 10° SE 23:45:03 31° SSW 23:49:03 10° WSW visible
27 Nov 3.5 01:18:30 10° SSE 01:22:30 31° SW 01:26:30 10° W visible
27 Nov 3.5 02:55:58 10° S 02:59:58 31° WSW 03:03:58 10° NW visible
27 Nov 3.5 04:33:25 10° SSW 04:37:25 31° W 04:41:25 10° NNW visible
27 Nov 3.5 06:10:53 10° SW 06:14:53 31° WNW 06:18:53 10° N visible
27 Nov 3.5 07:48:20 10° WSW 07:52:20 31° NW 07:56:20 10° NNE visible
27 Nov 3.5 09:25:48 10° W 09:29:48 31° NNW 09:33:49 10° NE visible
27 Nov 3.5 11:03:15 10° WNW 11:07:15 31° N 11:11:15 10° ENE visible
27 Nov 3.5 12:40:43 10° NW 12:44:43 31° NNE 12:48:44 10° E visible
27 Nov 3.5 14:18:10 10° N 14:22:10 31° NE 14:26:10 10° ESE visible
27 Nov 3.5 15:55:38 10° NNE 15:59:38 31° ENE 16:03:39 10° SE visible
27 Nov 3.5 17:33:05 10° NE 17:37:06 31° ESE 17:41:05 10° SSE visible
27 Nov 3.5 19:10:33 10° ENE 19:14:33 31° SE 19:18:33 10° S visible
27 Nov 3.5 20:48:00 10° E 20:52:01 31° SSE 20:56:01 10° SSW visible
27 Nov 3.5 22:25:28 10° ESE 22:29:28 31° S 22:33:28 10° WSW visible
28 Nov 3.5 00:02:55 10° SE 00:06:56 31° SSW 00:10:56 10° W visible
28 Nov 3.5 01:40:23 10° SSE 01:44:23 31° SW 01:48:23 10° WNW visible
28 Nov 3.5 03:17:50 10° S 03:21:51 31° WSW 03:25:51 10° NW visible
28 Nov 3.5 04:55:18 10° SSW 04:59:19 31° W 05:03:19 10° NNW visible
28 Nov 3.5 06:32:45 10° SW 06:36:46 31° WNW 06:40:46 10° N visible
28 Nov 3.5 08:10:13 10° WSW 08:14:13 31° NW 08:18:14 10° NNE visible
28 Nov 3.5 09:47:40 10° WNW 09:51:41 31° NNW 09:55:41 10° NE visible
28 Nov 3.5 11:25:08 10° NW 11:29:09 31° N 11:33:09 10° ENE visible
28 Nov 3.5 13:02:35 10° NNW 13:06:36 31° NE 13:10:36 10° E visible
28 Nov 3.5 14:40:03 10° N 14:44:03 31° ENE 14:48:03 10° ESE visible
28 Nov 3.5 16:17:30 10° NNE 16:21:31 31° E 16:25:31 10° SE visible
28 Nov 3.5 17:54:58 10° NE 17:58:58 31° ESE 18:02:58 10° S visible
28 Nov 3.5 19:32:25 10° ENE 19:36:26 31° SE 19:40:26 10° SSW visible
28 Nov 3.5 21:09:53 10° E 21:13:53 31° SSE 21:17:54 10° SW visible
28 Nov 3.5 22:47:20 10° ESE 22:51:21 31° S 22:55:21 10° WSW visible
29 Nov 3.5 00:24:48 10° SE 00:28:48 31° SSW 00:32:49 10° W visible
29 Nov 3.5 02:02:15 10° SSE 02:06:15 31° SW 02:10:16 10° WNW visible
29 Nov 3.5 03:39:43 10° S 03:43:44 31° WSW 03:47:44 10° NW visible
29 Nov 3.5 05:17:11 10° SW 05:21:11 31° W 05:25:11 10° NNW visible
29 Nov 3.5 06:54:38 10° WSW 06:58:38 31° WNW 07:02:39 10° N visible
29 Nov 3.5 08:32:05 10° W 08:36:06 31° NNW 08:40:06 10° NNE visible
29 Nov 3.5 10:09:33 10° WNW 10:13:33 31° N 10:17:34 10° NE visible
29 Nov 3.5 11:47:01 10° NW 11:51:01 31° NNE 11:55:01 10° ENE visible
29 Nov 3.5 13:24:28 10° NNW 13:28:28 31° NE 13:32:29 10° ESE visible
29 Nov 3.5 15:01:56 10° N 15:05:56 31° ENE 15:09:56 10° SE visible
29 Nov 3.5 16:39:23 10° NNE 16:43:23 31° E 16:47:24 10° SSE visible
29 Nov 3.5 18:16:51 10° NE 18:20:51 31° ESE 18:24:51 10° S visible
29 Nov 3.5 19:54:18 10° ENE 19:58:19 31° SE 20:02:19 10° SSW visible
29 Nov 3.5 21:31:46 10° E 21:35:46 31° SSE 21:39:46 10° SW visible
29 Nov 3.5 23:09:14 10° ESE 23:13:14 31° S 23:17:14 10° WSW visible
30 Nov 3.5 00:46:41 10° SSE 00:50:41 31° SSW 00:54:41 10° W visible
30 Nov 3.5 02:24:09 10° S 02:28:09 31° SW 02:32:09 10° WNW visible
30 Nov 3.5 04:01:36 10° SSW 04:05:36 31° W 04:09:36 10° NW visible
30 Nov 3.5 05:39:03 10° SW 05:43:04 31° WNW 05:47:04 10° NNW visible
30 Nov 3.5 07:16:31 10° WSW 07:20:31 31° NW 07:24:31 10° N visible
30 Nov 3.5 08:53:58 10° W 08:57:59 31° NNW 09:01:59 10° NE visible
30 Nov 3.5 10:31:26 10° WNW 10:35:26 31° N 10:39:26 10° ENE visible
30 Nov 3.5 12:08:53 10° NW 12:12:54 31° NNE 12:16:54 10° E visible
30 Nov 3.5 13:46:21 10° NNW 13:50:21 31° NE 13:54:21 10° ESE visible
30 Nov 3.5 15:23:48 10° N 15:27:49 31° ENE 15:31:49 10° SE visible
30 Nov 3.5 17:01:16 10° NNE 17:05:16 31° E 17:09:17 10° SSE visible
30 Nov 3.5 18:38:43 10° NE 18:42:43 31° ESE 18:46:44 10° S visible
30 Nov 3.5 20:16:11 10° E 20:20:11 31° SE 20:24:12 10° SSW visible
30 Nov 3.5 21:53:38 10° ESE 21:57:38 31° SSE 22:01:39 10° SW visible
30 Nov 3.5 23:31:06 10° SE 23:35:06 31° S 23:39:07 10° WSW visible
